SCP
0 0 0 0 0 0 0 0 0 0 0 0 0 0 0 0 0 0 0 0 0 0 0 0 0 0 0 0 0 0 0 0 0 0 0 0 0 0
0 0 0 0 0 0 0 0 0 0 0 0 0 0 0 0 0 0 0 0 0 0 0 0 0 0 0 0 0 0 0 0 0 0 0 0 0 0
0 0 0 0 0 0 0 0 0 0 0 0 0 0 0 0 0 0 0 0 0 0 0 0 0 0 0 0 0 0 0 0 0 0 0 0 0 0
0 0 0 0 0 0 0 0 0 0 0 0 0 0 0 0 0 0 0 0 0 0 0 0 0 0 0 0 0 0 0 0 0 0 0 0 0 0
0 0 0 0 0 0 0 0 0 0 0 0 0 0 0 0 0 0 0 0 0 0 0 0 0 0 0 0 0 0 0 0 0 0 0 0 0 0
0 0 0 0 0 0 0 0 0 0 0 0 0 0 0 0 0 0 0 0 0 0 0 0 0 0 0 0 0 0 0 0 0 0 0 0 0 0
0 0 0 0 0 0 0 0 0 0 0 0 0 0 0 0 0 0 0 0 0 0 0 0 0 0 0 0 0 0 0 0 0 0 0 0 0 0
0 0 0 0 0 0 0 0 0 0 0 0 0 0 0 0 0 0 0 0 0 0 0 0 0 0 0 0 0 0 0 0 0 0 0 0 0 0
0 0 0 0 0 0 0 0 0 0 0 0 0 0 0 0 0 0 0 0 0 0 0 0 0 0 0 0 0 0 0 0 0 0 0 0 0 0
0 0 0 0 0 0 0 0 0 0 0 0 0 0 0 0 0 0 0 0 0 0 0 0 0 0 0 0 0 0 0 0 0 0 0 0 0 0
0 0 0 0 0 0 0 0 0 0 0 0 0 0 0 0 0 0 0 0 0 0 0 0 0 0 0 0 0 0 0 0 0 0 0 0 0 0
0 0 0 0 0 0 0 0 0 0 0 0 0 0 0 0 0 0 0 0 0 0 0 0 0 0 0 0 1 1 0 0 0 0 0 0 0 0
0 0 0 0 0 0 0 0 0 0 0 0 0 0 0 0 0 0 0 0 0 0 0 0 0 0 0 0 0 1 1 1 0 0 0 0 0 0
0 0 0 0 0 0 0 0 0 0 0 0 0 0 0 0 0 0 0 0 0 0 0 0 1 1 1 0 0 0 1 1 1 1 0 0 0 0
0 0 0 0 0 0 0 0 0 0 0 0 0 0 0 0 0 0 0 0 0 0 0 0 0 1 1 0 0 0 0 1 1 1 1 0 0 0
0 0 0 0 0 0 0 0 0 0 0 0 0 0 0 0 0 0 0 0 0 0 0 0 0 0 0 0 0 0 0 1 1 1 1 1 1 1
0 0 0 0 0 0 0 0 0 0 0 0 0 0 0 0 0 0 0 0 0 0 0 0 0 0 0 0 0 0 0 0 0 1 1 1 1 1
0 0 0 0 0 0 0 0 0 0 0 0 0 0 0 0 0 0 0 0 0 0 0 0 0 0 0 0 0 0 0 0 0 0 1 0 1 1
0 0 0 0 0 0 0 0 0 0 0 0 0 0 0 0 0 0 0 0 0 0 0 0 0 0 0 0 0 0 0 0 0 0 0 0 0 0
0 0 0 0 0 0 0 0 0 0 0 0 0 0 0 0 0 0 0 0 0 0 0 0 0 0 0 0 0 0 0 0 0 0 0 0 0 0
0 0 0 0 0 0 0 0 0 0 0 0 0 0 0 0 0 0 0 0 0 0 0 0 0 0 0 0 0 0 0 0 0 0 0 0 0 0
0 0 0 0 0 0 0 0 0 0 0 0 0 0 0 0 0 0 0 0 0 0 0 0 0 0 0 0 0 0 0 0 0 0 0 0 0 0
0 0 0 0 0 0 0 0 0 0 0 0 0 0 0 0 0 0 0 0 0 0 0 0 0 0 0 0 0 0 0 0 0 0 0 0 0 0
Wind_Speed
3 3 2 1 2 2 2 3 4 2 2 2 1 1 1 2 2 2 2 4 4 5 5 5 5 5 5 6 6 6 6 6 6 7 7 7 7 8
2 3 2 1 2 2 2 2 2 3 2 2 2 1 1 1 2 2 3 4 5 5 5 6 6 6 6 6 7 7 7 7 8 8 8 8 8 8
3 3 3 2 2 2 2 2 2 2 2 1 1 1 1 1 1 1 2 3 3 5 5 6 6 6 7 7 7 7 8 8 8 8 9 9 9 9
4 3 3 3 3 2 2 2 2 2 2 2 1 1 1 1 1 2 2 2 3 4 6 6 6 6 7 7 7 8 8 8 9 9 9 10 10 10
5 5 4 4 3 3 3 3 2 2 2 2 1 1 1 1 1 2 2 2 3 3 5 5 6 6 7 7 8 8 9 9 9 10 10 10 10 11
4 5 5 5 5 4 3 3 3 2 2 2 1 1 1 1 1 1 2 2 3 3 3 4 4 6 7 8 8 9 9 9 9 10 10 10 11 11
4 4 5 6 7 6 4 4 4 3 2 2 2 1 1 2 2 1 2 3 3 2 3 3 3 4 5 6 7 8 8 8 9 9 10 10 10 10
5 4 4 5 7 8 8 7 7 5 4 3 2 3 4 3 2 2 2 2 3 1 2 3 3 4 4 4 6 8 8 8 9 9 9 9 10 10
5 5 4 4 5 4 5 6 7 7 8 5 5 5 5 4 3 3 3 4 4 2 2 4 3 4 5 5 8 9 9 8 8 8 8 8 9 9
6 6 5 4 4 5 4 3 4 4 6 6 6 6 6 5 5 4 3 3 4 3 3 4 3 4 4 5 7 9 9 8 8 8 8 8 8 9
5 5 6 5 6 6 4 4 4 4 5 7 8 7 7 7 5 3 2 2 4 3 3 3 3 3 4 4 5 6 7 8 8 9 9 9 9 8
4 4 6 6 6 6 5 5 5 5 3 3 3 4 4 4 6 6 4 3 3 4 2 3 3 2 4 3 3 4 4 6 8 9 9 9 8 5
4 4 4 7 7 7 7 6 8 5 3 3 3 3 2 2 3 4 4 5 5 5 3 3 3 2 3 4 4 4 5 5 6 6 7 9 9 6
5 4 4 6 7 7 6 6 7 5 2 2 3 3 3 3 3 3 4 6 6 7 5 4 4 4 4 6 6 5 5 5 5 6 6 7 8 9
4 5 5 6 6 5 6 6 4 3 3 3 3 4 3 3 3 2 3 3 5 6 5 5 6 5 5 6 7 6 6 6 5 5 6 6 6 5
4 3 4 4 3 3 2 2 3 3 3 3 3 3 2 2 2 2 2 2 3 4 4 5 5 6 6 8 7 8 7 6 6 6 7 7 7 6
4 2 1 2 2 2 1 1 1 2 3 3 3 3 3 2 3 2 2 2 3 5 5 3 3 5 7 7 7 8 7 7 7 7 6 8 8 7
5 2 2 3 3 2 2 2 2 2 2 3 3 3 3 3 3 2 2 3 4 5 5 5 4 4 4 5 8 8 7 7 7 7 6 7 9 7
3 2 2 2 2 2 2 2 2 2 2 2 2 2 3 3 3 3 3 3 4 5 5 4 4 4 7 9 6 6 7 7 7 7 7 7 9 9
2 2 2 2 2 2 2 2 2 2 2 2 2 2 3 3 3 3 3 4 5 5 6 5 4 5 6 8 7 7 7 8 7 8 8 7 8 8
2 1 1 1 1 1 1 2 2 2 2 2 2 2 3 3 3 4 4 5 5 5 6 6 6 7 6 5 7 7 6 6 8 8 8 8 8 8
2 1 1 1 1 1 1 1 1 1 1 2 2 2 3 3 4 5 5 5 5 5 7 6 6 5 4 6 8 9 9 8 7 8 9 9 7 7
1 1 0 0 0 0 1 1 1 1 2 2 2 3 3 3 4 4 5 5 5 6 6 6 5 5 5 6 8 8 10 10 7 6 7 8 10 13
Wind_Direction
169 169 168 175 176 179 166 159 153 173 243 267 272 280 244 235 242 247 258 271 276 279 282 281 276 273 271 267 262 256 254 256 256 257 260 263 265 268
161 154 155 159 161 160 162 158 156 160 203 242 253 288 280 258 228 240 261 280 276 275 276 275 271 269 267 264 260 257 256 256 256 255 254 254 257 263
158 161 168 162 156 153 148 149 153 152 178 247 262 289 288 289 326 295 269 264 273 273 273 273 271 268 266 262 259 257 255 254 253 252 252 253 254 257
175 167 176 169 161 160 163 166 167 170 169 200 248 291 298 295 291 292 290 278 273 272 269 271 269 267 265 262 261 260 259 257 254 252 251 252 255 258
184 184 185 174 179 179 177 176 176 175 171 178 216 253 285 304 307 298 294 296 286 276 270 268 272 275 274 269 266 264 261 260 258 256 255 255 256 258
193 196 196 195 195 188 186 186 177 170 168 174 208 238 259 285 270 282 293 292 297 300 292 283 278 280 276 271 267 264 262 261 260 257 255 255 256 257
196 202 207 207 204 197 194 190 179 177 178 193 216 228 246 245 246 245 268 294 284 272 287 287 289 286 281 272 266 262 263 264 263 260 258 258 258 257
201 211 220 219 218 217 216 203 189 185 192 198 211 226 241 238 234 231 246 282 287 252 269 286 282 281 281 274 267 266 268 269 269 266 263 261 261 261
201 206 216 217 211 214 223 222 220 221 209 200 213 227 231 224 213 228 228 236 253 270 260 278 276 277 278 275 270 270 270 272 271 270 271 272 271 269
208 207 211 217 211 200 205 221 239 241 228 222 227 235 237 230 217 229 238 248 261 255 225 260 271 273 286 283 277 274 275 276 274 273 274 275 276 275
214 210 209 217 220 203 200 224 251 262 251 236 237 246 248 242 221 209 221 240 273 273 210 236 267 282 283 277 280 280 280 283 283 279 277 278 278 278
214 213 213 217 222 205 204 215 241 255 259 259 253 261 259 250 219 214 220 234 255 268 222 221 262 287 288 273 285 295 292 286 285 281 279 279 280 278
214 218 220 219 223 218 210 218 235 244 249 249 262 271 271 259 239 222 217 220 233 249 239 208 250 250 259 284 289 287 287 291 293 285 279 280 279 266
216 217 218 216 222 224 222 233 240 233 231 237 252 263 267 268 264 252 236 231 234 247 256 229 247 253 265 277 283 286 286 282 280 281 287 289 281 264
218 211 214 218 219 225 228 230 221 209 212 228 248 258 260 267 277 280 268 254 252 252 253 239 244 257 254 262 275 280 290 290 277 277 286 288 286 282
228 218 210 208 204 212 214 210 203 203 211 231 249 256 258 263 265 268 272 281 278 278 262 252 251 250 257 260 265 275 276 278 284 286 289 287 280 272
177 174 178 181 191 200 207 217 210 201 214 230 242 256 264 271 272 268 262 265 269 285 294 294 274 261 256 259 265 268 274 275 276 283 284 284 280 276
153 172 192 198 205 215 223 230 226 229 237 239 243 254 266 272 276 274 264 264 273 281 286 295 305 302 286 261 238 263 274 278 285 285 279 281 284 283
152 177 193 200 204 209 217 224 232 238 231 236 250 264 272 274 275 277 275 276 277 279 282 285 286 288 292 293 279 235 267 285 289 289 283 279 284 290
160 181 193 193 196 202 211 227 244 252 245 254 263 272 272 271 276 282 282 284 284 285 287 286 281 274 274 282 286 284 262 272 285 290 292 291 286 284
160 172 182 185 202 215 225 236 243 253 261 264 270 277 275 270 275 280 282 281 280 286 288 290 290 283 279 278 278 281 285 270 268 280 292 294 295 296
141 155 171 198 211 227 237 239 246 263 277 279 286 287 284 277 278 281 281 281 277 279 283 289 298 297 282 276 283 289 294 298 286 271 267 262 278 289
95 99 84 34 311 283 266 256 260 279 284 287 290 288 285 282 282 281 280 278 280 283 288 292 297 292 285 282 285 290 295 300 300 301 295 285 269 266